Wind_Speed
9 12 7 4 4 5 4 3 1 3 8 9 8 11 12 8 13 17 37 34 31 29 27 22 19 15 10 8 6 6 10 14
7 2 9 7 9 3 4 3 3 4 7 7 7 8 9 10 14 17 22 32 32 33 29 25 26 19 15 11 7 6 10 14
3 5 5 2 3 3 4 4 6 2 5 8 6 9 16 11 10 8 21 30 35 39 35 32 26 25 23 18 14 12 9 12
6 6 4 5 6 4 3 5 6 2 7 9 4 8 6 9 11 17 24 24 31 36 38 42 31 26 26 26 22 15 11 12
5 6 4 2 3 5 5 5 8 3 5 3 5 3 6 6 9 10 6 11 24 35 39 40 37 33 30 31 29 23 17 14
13 7 5 6 9 7 8 6 5 10 14 13 6 1 3 3 3 11 9 12 16 20 38 37 37 33 36 30 28 28 25 21
6 5 3 5 5 9 14 14 10 9 7 6 9 7 8 9 4 7 11 10 13 10 27 34 33 44 41 36 36 36 36 29
4 4 4 5 5 10 15 20 17 16 11 7 5 3 3 4 5 7 12 10 12 12 12 19 33 30 36 41 42 44 43 35
7 11 14 12 10 11 11 17 14 17 10 7 5 2 2 4 7 13 14 15 14 8 1 8 26 31 34 37 41 44 44 47
4 3 3 13 14 11 8 10 11 10 7 8 6 3 6 10 10 13 18 15 9 8 3 2 7 19 30 34 38 50 44 43
5 7 7 10 6 5 14 14 14 11 8 9 7 3 8 15 19 16 13 12 11 13 13 10 9 8 8 21 22 34 32 38
8 4 4 4 5 7 5 12 11 10 9 9 6 3 10 18 20 14 15 11 11 15 18 14 9 3 4 5 5 10 15 29
14 10 7 10 8 4 4 6 9 6 4 6 7 10 15 20 19 14 9 11 11 11 16 18 15 12 12 12 11 7 7 8
13 8 6 9 12 10 11 10 7 8 8 9 13 16 18 17 17 15 15 12 13 14 14 13 14 14 15 16 16 9 6 4
13 11 6 6 7 9 9 7 5 7 9 12 13 11 15 13 12 15 18 13 10 12 16 16 16 13 12 11 16 15 7 4
13 11 10 8 7 8 8 10 14 15 14 17 17 20 13 18 20 16 14 13 12 10 13 15 14 14 12 10 10 14 11 9
15 15 13 10 9 9 10 13 13 14 16 18 20 20 20 21 20 16 17 17 15 16 14 12 13 12 12 12 12 11 10 9
13 10 9 10 12 11 11 13 16 19 22 22 23 21 21 21 20 20 21 17 15 14 14 16 13 12 12 12 12 12 12 13
9 9 10 13 16 19 23 26 28 23 17 19 19 23 27 24 21 21 17 16 16 13 13 15 15 14 11 13 14 14 13 13
Wind_Direction
206 234 221 189 171 172 150 191 231 226 256 275 288 289 299 281 240 219 216 213 223 222 217 216 206 206 205 231 232 248 225 222
139 199 206 225 167 167 206 144 261 248 263 249 260 298 321 263 239 238 223 217 218 225 229 223 212 202 211 216 220 244 236 229
156 135 114 132 223 235 196 195 176 220 242 218 264 294 325 314 248 256 223 217 225 220 228 229 220 219 212 217 230 233 243 231
143 141 78 9 343 284 210 214 214 216 264 257 293 309 7 349 309 219 205 207 220 224 228 229 228 221 211 221 222 236 241 232
170 177 198 298 268 281 282 232 214 179 264 263 303 86 25 351 337 200 325 263 248 237 231 226 230 223 213 225 230 225 238 244
210 205 246 294 288 275 234 227 241 261 286 271 304 40 222 330 81 339 287 281 309 244 222 219 228 220 218 223 220 228 230 238
202 260 282 297 286 266 252 262 248 290 312 287 272 246 252 260 278 224 255 292 320 247 221 229 229 229 225 225 225 228 230 227
181 223 295 278 307 286 258 250 255 261 292 309 231 255 351 221 270 243 245 295 317 323 232 230 215 223 228 226 221 227 229 226
242 259 276 289 286 312 257 251 248 256 274 254 242 323 343 337 295 288 283 306 310 353 11 252 235 246 252 238 233 230 232 228
220 251 212 260 278 289 247 248 220 225 234 193 205 294 357 358 356 333 300 307 281 245 227 302 318 251 239 237 254 236 229 232
211 223 278 301 248 251 227 192 187 206 192 205 238 274 1 347 342 323 315 297 276 231 240 265 318 354 248 246 260 252 251 238
213 190 195 172 152 116 148 182 179 188 201 224 236 285 334 332 335 327 314 299 272 233 230 234 249 280 287 225 236 259 272 245
211 217 223 239 217 216 229 250 240 280 251 248 270 302 320 321 327 317 300 304 269 249 234 235 240 241 245 265 278 320 295 229
205 201 227 219 217 240 270 283 296 299 292 285 294 303 302 302 304 295 304 292 264 241 241 238 227 225 247 256 258 258 14 36
217 207 189 203 256 269 301 329 318 297 295 298 301 306 317 307 301 288 293 266 258 253 248 236 239 230 225 238 240 238 272 45
211 226 245 233 258 284 295 310 312 310 307 306 306 317 320 319 311 275 272 266 253 252 245 243 233 229 224 220 235 229 227 208
240 247 245 237 246 244 265 286 284 280 286 288 287 298 300 309 314 282 274 251 254 253 251 249 241 228 218 219 217 208 198 205
222 225 226 241 251 258 269 274 272 283 286 283 290 287 292 299 283 285 271 237 241 249 250 244 242 237 233 221 214 221 217 211
223 237 255 270 282 288 291 288 291 292 279 280 284 292 294 295 266 272 241 247 237 248 252 250 245 238 242 247 241 233 235 246
Height
3154 3156 3158 3157 3158 3160 3160 3161 3162 3160 3159 3159 3157 3156 3155 3153 3152 3153 3155 3161 3165 3170 3175 3180 3181 3184 3187 3190 3191 3192 3194 3195
3154 3156 3156 3156 3158 3158 3159 3163 3163 3158 3157 3156 3155 3154 3153 3152 3150 3151 3153 3157 3161 3166 3169 3176 3179 3181 3184 3188 3190 3191 3192 3194
3154 3155 3155 3157 3156 3156 3157 3158 3157 3159 3155 3153 3153 3152 3150 3148 3148 3146 3150 3153 3157 3160 3164 3169 3174 3177 3180 3184 3188 3189 3190 3191
3152 3152 3153 3153 3153 3154 3154 3155 3155 3154 3153 3150 3150 3150 3148 3147 3147 3146 3145 3149 3153 3156 3159 3163 3167 3172 3174 3178 3183 3187 3188 3188
3151 3152 3151 3151 3152 3152 3151 3152 3152 3153 3150 3149 3148 3148 3147 3145 3144 3141 3143 3145 3148 3149 3151 3156 3161 3165 3169 3173 3177 3183 3185 3186
3147 3147 3148 3148 3149 3149 3149 3149 3149 3149 3146 3147 3146 3146 3146 3143 3140 3142 3144 3145 3143 3140 3143 3149 3156 3160 3164 3168 3171 3175 3180 3182
3144 3144 3145 3145 3146 3146 3146 3146 3147 3147 3146 3145 3144 3144 3144 3142 3139 3140 3141 3141 3140 3135 3138 3144 3147 3154 3158 3162 3165 3169 3171 3175
3142 3143 3143 3143 3142 3141 3142 3143 3144 3144 3145 3144 3143 3142 3141 3140 3138 3138 3137 3137 3136 3133 3133 3135 3141 3148 3151 3154 3157 3160 3165 3169
3138 3140 3140 3142 3139 3138 3136 3138 3141 3142 3143 3142 3143 3143 3141 3141 3139 3139 3138 3137 3137 3134 3132 3134 3139 3138 3143 3143 3149 3152 3156 3158
3135 3136 3137 3137 3135 3135 3136 3136 3138 3140 3141 3141 3142 3142 3142 3142 3140 3138 3135 3135 3135 3135 3135 3136 3135 3133 3132 3134 3140 3140 3148 3150
3132 3133 3133 3133 3132 3132 3132 3134 3136 3138 3140 3141 3142 3142 3141 3138 3137 3135 3132 3129 3131 3132 3132 3132 3132 3129 3129 3129 3133 3132 3137 3143
3129 3130 3131 3130 3130 3131 3133 3134 3136 3137 3138 3139 3139 3139 3139 3136 3135 3132 3130 3127 3127 3128 3129 3131 3134 3134 3134 3132 3133 3132 3130 3129
3125 3127 3128 3129 3129 3130 3133 3137 3134 3135 3135 3136 3137 3138 3136 3135 3132 3130 3128 3127 3127 3126 3126 3128 3129 3133 3135 3133 3132 3130 3126 3124
3121 3122 3125 3126 3128 3130 3130 3130 3131 3132 3133 3133 3133 3133 3132 3130 3128 3127 3126 3124 3124 3124 3124 3124 3127 3128 3130 3131 3131 3131 3128 3124
3117 3119 3121 3123 3124 3125 3125 3126 3128 3129 3129 3129 3128 3127 3126 3124 3124 3122 3121 3122 3120 3120 3121 3122 3123 3124 3126 3126 3127 3129 3129 3127
3114 3115 3116 3118 3119 3120 3121 3122 3123 3123 3123 3123 3123 3123 3122 3121 3119 3118 3116 3116 3118 3119 3119 3120 3120 3121 3122 3122 3123 3125 3127 3127
3109 3111 3113 3114 3115 3116 3117 3118 3118 3118 3118 3118 3117 3117 3117 3116 3115 3114 3113 3112 3113 3116 3117 3118 3118 3118 3119 3121 3122 3123 3124 3126
3107 3108 3109 3111 3111 3112 3114 3114 3115 3114 3113 3113 3112 3111 3111 3111 3109 3109 3109 3108 3109 3112 3114 3115 3116 3116 3118 3118 3120 3121 3123 3125
3104 3104 3106 3107 3106 3107 3108 3107 3107 3107 3107 3107 3107 3106 3105 3105 3105 3104 3104 3105 3107 3108 3111 3112 3113 3114 3116 3117 3118 3120 3121 3122